Time,TemperatureF,DewpointF,PressureIn,WindDirection,WindDirectionDegrees,WindSpeedMPH,WindSpeedGustMPH,Humidity,HourlyPrecipIn,Conditions,Clouds,dailyrainin,SoftwareType,DateUTC
2013-11-11 00:03:00,46.0,42.7,30.04,SE,135,0.0,0.0,88,0.00,,,0.00,pywws,2013-11-11 05:03:00,
2013-11-11 00:08:00,45.7,42.3,30.05,SE,135,0.0,0.0,88,0.00,,,0.00,pywws,2013-11-11 05:08:00,
2013-11-11 00:13:00,45.7,42.3,30.05,SE,135,0.0,0.0,88,0.00,,,0.00,pywws,2013-11-11 05:13:00,
2013-11-11 00:18:00,45.1,42.4,30.05,North,0,1.6,3.1,90,0.00,,,0.00,pywws,2013-11-11 05:18:00,
2013-11-11 00:23:00,45.9,43.1,30.05,NE,45,0.0,0.0,90,0.00,,,0.00,pywws,2013-11-11 05:23:00,
2013-11-11 00:33:00,45.9,43.1,30.06,West,270,0.7,2.2,90,0.00,,,0.00,pywws,2013-11-11 05:33:00,
2013-11-11 00:38:00,45.7,42.9,30.06,West,270,0.0,0.7,90,0.00,,,0.00,pywws,2013-11-11 05:38:00,
2013-11-11 00:43:00,45.5,42.7,30.06,West,270,0.0,0.0,90,0.00,,,0.00,pywws,2013-11-11 05:43:00,
2013-11-11 00:48:00,45.3,42.6,30.06,South,180,0.0,1.6,90,0.00,,,0.00,pywws,2013-11-11 05:48:00,
2013-11-11 00:53:00,45.3,42.8,30.06,SE,135,0.0,1.6,91,0.00,,,0.00,pywws,2013-11-11 05:53:00,
2013-11-11 01:03:00,45.3,42.8,30.06,South,180,0.0,0.7,91,0.00,,,0.00,pywws,2013-11-11 06:03:00,
2013-11-11 01:08:00,45.3,42.8,30.07,East,90,0.0,2.2,91,0.00,,,0.00,pywws,2013-11-11 06:08:00,
2013-11-11 01:13:00,45.5,43.0,30.07,SSW,202,0.0,0.7,91,0.00,,,0.00,pywws,2013-11-11 06:13:00,
2013-11-11 01:18:00,46.0,43.6,30.07,South,180,0.0,1.6,91,0.00,,,0.00,pywws,2013-11-11 06:18:00,
2013-11-11 01:23:00,46.4,43.9,30.08,SE,135,0.0,0.0,91,0.00,,,0.00,pywws,2013-11-11 06:23:00,
2013-11-11 01:33:00,46.9,44.2,30.08,West,270,0.7,3.1,90,0.00,,,0.00,pywws,2013-11-11 06:33:00,
2013-11-11 01:38:00,48.6,44.3,30.08,East,90,0.0,0.0,85,0.00,,,0.00,pywws,2013-11-11 06:38:00,
2013-11-11 01:43:00,48.7,44.1,30.08,SE,135,0.0,0.0,84,0.00,,,0.00,pywws,2013-11-11 06:43:00,
2013-11-11 01:48:00,49.1,43.8,30.08,SW,225,0.0,0.7,82,0.00,,,0.00,pywws,2013-11-11 06:48:00,
2013-11-11 01:53:00,49.5,43.6,30.08,South,180,0.0,1.6,80,0.00,,,0.00,pywws,2013-11-11 06:53:00,
2013-11-11 02:03:00,49.6,43.7,30.09,South,180,0.0,0.7,80,0.00,,,0.00,pywws,2013-11-11 07:03:00,
2013-11-11 02:08:00,49.8,43.2,30.09,North,0,0.0,0.0,78,0.00,,,0.00,pywws,2013-11-11 07:08:00,
2013-11-11 02:13:00,49.8,42.9,30.09,SW,225,0.0,0.7,77,0.00,,,0.00,pywws,2013-11-11 07:13:00,
2013-11-11 02:18:00,49.6,42.7,30.09,SE,135,0.0,0.7,77,0.00,,,0.00,pywws,2013-11-11 07:18:00,
2013-11-11 02:23:00,49.6,42.4,30.09,South,180,0.0,0.7,76,0.00,,,0.00,pywws,2013-11-11 07:23:00,
2013-11-11 02:33:00,49.6,42.0,30.09,SW,225,0.7,2.2,75,0.00,,,0.00,pywws,2013-11-11 07:33:00,
2013-11-11 02:38:00,50.0,41.7,30.09,North,0,0.0,0.7,73,0.00,,,0.00,pywws,2013-11-11 07:38:00,
2013-11-11 02:43:00,49.8,41.2,30.09,SE,135,0.7,1.6,72,0.00,,,0.00,pywws,2013-11-11 07:43:00,
2013-11-11 02:48:00,50.0,41.3,30.10,SE,135,0.0,0.7,72,0.00,,,0.00,pywws,2013-11-11 07:48:00,
2013-11-11 02:53:00,50.0,41.0,30.10,SE,135,0.0,0.7,71,0.00,,,0.00,pywws,2013-11-11 07:53:00,
2013-11-11 03:03:00,50.0,41.0,30.10,South,180,0.0,0.0,71,0.00,,,0.00,pywws,2013-11-11 08:03:00,
2013-11-11 03:08:00,49.6,40.6,30.10,South,180,0.0,0.7,71,0.00,,,0.00,pywws,2013-11-11 08:08:00,
2013-11-11 03:13:00,49.5,40.5,30.10,South,180,0.0,1.6,71,0.00,,,0.00,pywws,2013-11-11 08:13:00,
2013-11-11 03:18:00,49.5,40.8,30.10,SE,135,0.0,0.7,72,0.00,,,0.00,pywws,2013-11-11 08:18:00,
2013-11-11 03:23:00,49.5,40.5,30.10,South,180,0.0,0.7,71,0.00,,,0.00,pywws,2013-11-11 08:23:00,
2013-11-11 03:33:00,49.6,40.3,30.11,East,90,0.0,1.6,70,0.00,,,0.00,pywws,2013-11-11 08:33:00,
2013-11-11 03:38:00,50.4,41.0,30.11,SW,225,0.0,1.6,70,0.00,,,0.00,pywws,2013-11-11 08:38:00,
2013-11-11 03:43:00,50.5,39.6,30.11,South,180,2.2,3.8,66,0.00,,,0.00,pywws,2013-11-11 08:43:00,
2013-11-11 03:48:00,51.1,39.7,30.11,South,180,0.7,1.6,65,0.00,,,0.00,pywws,2013-11-11 08:48:00,
2013-11-11 03:53:00,50.7,38.2,30.11,South,180,0.7,2.2,62,0.00,,,0.00,pywws,2013-11-11 08:53:00,
2013-11-11 04:03:00,51.4,38.0,30.11,South,180,0.7,1.6,60,0.00,,,0.00,pywws,2013-11-11 09:03:00,
2013-11-11 04:08:00,51.6,38.2,30.11,South,180,0.7,2.2,60,0.00,,,0.00,pywws,2013-11-11 09:08:00,
2013-11-11 04:13:00,51.4,36.7,30.11,South,180,0.7,2.2,57,0.00,,,0.00,pywws,2013-11-11 09:13:00,
2013-11-11 04:18:00,51.4,36.7,30.11,South,180,1.6,3.1,57,0.00,,,0.00,pywws,2013-11-11 09:18:00,
2013-11-11 04:23:00,51.4,36.3,30.11,SSE,158,1.6,3.8,56,0.00,,,0.00,pywws,2013-11-11 09:23:00,
2013-11-11 04:33:00,51.4,36.3,30.11,South,180,0.7,3.1,56,0.00,,,0.00,pywws,2013-11-11 09:33:00,
2013-11-11 04:38:00,51.1,35.9,30.12,South,180,1.6,2.2,56,0.00,,,0.00,pywws,2013-11-11 09:38:00,
2013-11-11 04:43:00,50.9,35.3,30.12,SE,135,0.7,2.2,55,0.00,,,0.00,pywws,2013-11-11 09:43:00,
2013-11-11 04:48:00,50.9,35.8,30.12,SSE,158,0.7,2.2,56,0.00,,,0.00,pywws,2013-11-11 09:48:00,
2013-11-11 04:53:00,50.7,35.6,30.12,SE,135,0.7,3.1,56,0.00,,,0.00,pywws,2013-11-11 09:53:00,
2013-11-11 05:03:00,50.5,35.4,30.12,South,180,0.7,2.2,56,0.00,,,0.00,pywws,2013-11-11 10:03:00,
2013-11-11 05:08:00,50.4,35.3,30.12,South,180,0.7,2.2,56,0.00,,,0.00,pywws,2013-11-11 10:08:00,
2013-11-11 05:13:00,50.2,35.5,30.13,South,180,0.7,2.2,57,0.00,,,0.00,pywws,2013-11-11 10:13:00,
2013-11-11 05:18:00,50.2,35.1,30.13,West,270,0.7,2.2,56,0.00,,,0.00,pywws,2013-11-11 10:18:00,
2013-11-11 05:23:00,50.0,34.5,30.13,South,180,1.6,3.1,55,0.00,,,0.00,pywws,2013-11-11 10:23:00,
2013-11-11 05:33:00,50.0,34.5,30.13,SW,225,1.6,3.8,55,0.00,,,0.00,pywws,2013-11-11 10:33:00,
2013-11-11 05:38:00,49.8,34.3,30.13,SW,225,1.6,3.1,55,0.00,,,0.00,pywws,2013-11-11 10:38:00,
2013-11-11 05:43:00,49.8,34.8,30.13,SW,225,0.7,1.6,56,0.00,,,0.00,pywws,2013-11-11 10:43:00,
2013-11-11 05:48:00,49.6,34.6,30.13,SE,135,0.7,3.1,56,0.00,,,0.00,pywws,2013-11-11 10:48:00,
2013-11-11 05:53:00,49.6,34.1,30.14,South,180,2.2,5.4,55,0.00,,,0.00,pywws,2013-11-11 10:53:00,
2013-11-11 06:03:00,49.5,34.4,30.14,SSE,158,1.6,3.1,56,0.00,,,0.00,pywws,2013-11-11 11:03:00,
2013-11-11 06:08:00,49.3,34.3,30.14,WSW,248,1.6,3.8,56,0.00,,,0.00,pywws,2013-11-11 11:08:00,
2013-11-11 06:13:00,49.1,34.1,30.14,SW,225,1.6,3.8,56,0.00,,,0.00,pywws,2013-11-11 11:13:00,
2013-11-11 06:18:00,49.1,34.1,30.14,South,180,1.6,5.4,56,0.00,,,0.00,pywws,2013-11-11 11:18:00,
2013-11-11 06:23:00,49.1,34.1,30.14,South,180,1.6,5.4,56,0.00,,,0.00,pywws,2013-11-11 11:23:00,
2013-11-11 06:33:00,48.7,33.8,30.14,SW,225,0.7,3.1,56,0.00,,,0.00,pywws,2013-11-11 11:33:00,
2013-11-11 06:38:00,48.4,33.9,30.14,SW,225,1.6,2.2,57,0.00,,,0.00,pywws,2013-11-11 11:38:00,
2013-11-11 06:43:00,48.4,33.4,30.14,SW,225,0.7,2.2,56,0.00,,,0.00,pywws,2013-11-11 11:43:00,
2013-11-11 06:48:00,48.2,33.7,30.14,South,180,2.2,3.8,57,0.00,,,0.00,pywws,2013-11-11 11:48:00,
2013-11-11 06:53:00,48.0,33.5,30.14,South,180,1.6,2.2,57,0.00,,,0.00,pywws,2013-11-11 11:53:00,
2013-11-11 07:03:00,47.8,33.4,30.14,South,180,0.0,1.6,57,0.00,,,0.00,pywws,2013-11-11 12:03:00,
2013-11-11 07:08:00,47.7,33.2,30.14,SW,225,1.6,3.1,57,0.00,,,0.00,pywws,2013-11-11 12:08:00,
2013-11-11 07:13:00,47.7,33.2,30.14,South,180,1.6,3.1,57,0.00,,,0.00,pywws,2013-11-11 12:13:00,
2013-11-11 07:18:00,47.7,33.2,30.14,South,180,1.6,2.2,57,0.00,,,0.00,pywws,2013-11-11 12:18:00,
2013-11-11 07:23:00,47.5,33.0,30.14,SE,135,0.7,2.2,57,0.00,,,0.00,pywws,2013-11-11 12:23:00,
2013-11-11 07:33:00,47.5,33.0,30.14,SE,135,1.6,2.2,57,0.00,,,0.00,pywws,2013-11-11 12:33:00,
2013-11-11 07:38:00,47.5,33.0,30.14,SW,225,0.0,2.2,57,0.00,,,0.00,pywws,2013-11-11 12:38:00,
2013-11-11 07:43:00,47.5,33.4,30.13,SW,225,0.7,3.1,58,0.00,,,0.00,pywws,2013-11-11 12:43:00,
2013-11-11 07:48:00,47.7,33.2,30.13,South,180,0.7,3.1,57,0.00,,,0.00,pywws,2013-11-11 12:48:00,
2013-11-11 07:53:00,47.8,33.4,30.13,West,270,1.6,3.1,57,0.00,,,0.00,pywws,2013-11-11 12:53:00,
2013-11-11 08:03:00,48.0,33.1,30.13,NW,315,1.6,3.8,56,0.00,,,0.00,pywws,2013-11-11 13:03:00,
2013-11-11 08:08:00,48.4,33.4,30.13,West,270,0.7,2.2,56,0.00,,,0.00,pywws,2013-11-11 13:08:00,
2013-11-11 08:13:00,48.6,33.6,30.12,South,180,0.0,1.6,56,0.00,,,0.00,pywws,2013-11-11 13:13:00,
2013-11-11 08:18:00,48.9,33.5,30.12,NNE,22,1.6,3.8,55,0.00,,,0.00,pywws,2013-11-11 13:18:00,
2013-11-11 08:23:00,49.1,33.6,30.12,South,180,1.6,3.1,55,0.00,,,0.00,pywws,2013-11-11 13:23:00,
2013-11-11 08:33:00,49.3,33.8,30.12,NE,45,0.7,2.2,55,0.00,,,0.00,pywws,2013-11-11 13:33:00,
2013-11-11 08:38:00,50.0,34.5,30.12,South,180,2.2,3.8,55,0.00,,,0.00,pywws,2013-11-11 13:38:00,
2013-11-11 08:43:00,50.2,34.2,30.12,SE,135,1.6,3.1,54,0.00,,,0.00,pywws,2013-11-11 13:43:00,
2013-11-11 08:48:00,50.9,34.9,30.11,SE,135,0.7,1.6,54,0.00,,,0.00,pywws,2013-11-11 13:48:00,
2013-11-11 08:53:00,52.0,34.9,30.11,East,90,2.2,3.8,52,0.00,,,0.00,pywws,2013-11-11 13:53:00,
2013-11-11 09:03:00,53.4,34.7,30.11,SW,225,0.7,2.2,49,0.00,,,0.00,pywws,2013-11-11 14:03:00,
2013-11-11 09:07:00,54.7,34.9,30.11,SW,225,0.7,2.2,47,0.00,,,0.00,pywws,2013-11-11 14:07:00,
2013-11-11 09:12:00,54.7,35.4,30.11,NW,315,0.7,1.6,48,0.00,,,0.00,pywws,2013-11-11 14:12:00,
2013-11-11 09:17:00,54.9,35.0,30.11,SSW,202,3.8,6.0,47,0.00,,,0.00,pywws,2013-11-11 14:17:00,
2013-11-11 09:22:00,54.9,34.5,30.11,South,180,0.7,2.2,46,0.00,,,0.00,pywws,2013-11-11 14:22:00,
2013-11-11 09:33:00,57.2,36.6,30.11,NNW,338,0.7,3.1,46,0.00,,,0.00,pywws,2013-11-11 14:33:00,
2013-11-11 09:38:00,57.0,35.3,30.11,North,0,0.7,2.2,44,0.00,,,0.00,pywws,2013-11-11 14:38:00,
2013-11-11 09:43:00,57.0,35.3,30.11,NW,315,0.7,3.1,44,0.00,,,0.00,pywws,2013-11-11 14:43:00,
2013-11-11 09:48:00,57.2,34.9,30.11,West,270,1.6,4.5,43,0.00,,,0.00,pywws,2013-11-11 14:48:00,
2013-11-11 09:53:00,57.2,35.5,30.11,SE,135,1.6,3.1,44,0.00,,,0.00,pywws,2013-11-11 14:53:00,
2013-11-11 10:03:00,57.4,35.7,30.11,SW,225,0.7,2.2,44,0.00,,,0.00,pywws,2013-11-11 15:03:00,
2013-11-11 10:08:00,58.3,35.3,30.11,South,180,2.2,5.4,42,0.00,,,0.00,pywws,2013-11-11 15:08:00,
2013-11-11 10:13:00,57.6,34.0,30.11,SW,225,2.2,4.5,41,0.00,,,0.00,pywws,2013-11-11 15:13:00,
2013-11-11 10:18:00,56.7,34.4,30.10,NW,315,2.2,5.4,43,0.00,,,0.00,pywws,2013-11-11 15:18:00,
2013-11-11 10:23:00,57.9,35.0,30.10,South,180,2.2,4.5,42,0.00,,,0.00,pywws,2013-11-11 15:23:00,
2013-11-11 10:33:00,57.7,34.8,30.10,NE,45,0.7,2.2,42,0.00,,,0.00,pywws,2013-11-11 15:33:00,
2013-11-11 10:38:00,57.4,35.1,30.10,SE,135,1.6,3.8,43,0.00,,,0.00,pywws,2013-11-11 15:38:00,
2013-11-11 10:43:00,58.6,36.2,30.10,West,270,0.7,2.2,43,0.00,,,0.00,pywws,2013-11-11 15:43:00,
2013-11-11 10:48:00,60.8,35.7,30.10,South,180,3.1,4.5,39,0.00,,,0.00,pywws,2013-11-11 15:48:00,
2013-11-11 10:53:00,62.2,37.0,30.10,NE,45,0.7,2.2,39,0.00,,,0.00,pywws,2013-11-11 15:53:00,
2013-11-11 11:03:00,63.3,37.3,30.09,NW,315,0.7,2.2,38,0.00,,,0.00,pywws,2013-11-11 16:03:00,
2013-11-11 11:08:00,63.3,35.9,30.09,SW,225,0.7,2.2,36,0.00,,,0.00,pywws,2013-11-11 16:08:00,
2013-11-11 11:13:00,63.3,35.9,30.09,South,180,0.7,2.2,36,0.00,,,0.00,pywws,2013-11-11 16:13:00,
2013-11-11 11:18:00,62.6,34.6,30.09,South,180,2.2,3.1,35,0.00,,,0.00,pywws,2013-11-11 16:18:00,
2013-11-11 11:23:00,63.1,35.7,30.09,NE,45,0.7,2.2,36,0.00,,,0.00,pywws,2013-11-11 16:23:00,
2013-11-11 11:33:00,62.8,35.4,30.09,NNW,338,1.6,3.8,36,0.00,,,0.00,pywws,2013-11-11 16:33:00,
2013-11-11 11:38:00,61.3,35.5,30.09,South,180,1.6,4.5,38,0.00,,,0.00,pywws,2013-11-11 16:38:00,
2013-11-11 11:43:00,61.3,34.8,30.08,SE,135,1.6,3.8,37,0.00,,,0.00,pywws,2013-11-11 16:43:00,
2013-11-11 11:48:00,61.2,35.4,30.08,SSE,158,3.1,4.5,38,0.00,,,0.00,pywws,2013-11-11 16:48:00,
2013-11-11 11:53:00,61.2,35.4,30.08,SE,135,1.6,3.8,38,0.00,,,0.00,pywws,2013-11-11 16:53:00,
2013-11-11 12:03:00,61.2,34.7,30.08,North,0,0.7,2.2,37,0.00,,,0.00,pywws,2013-11-11 17:03:00,
2013-11-11 12:07:00,61.3,35.5,30.08,SE,135,0.7,3.1,38,0.00,,,0.00,pywws,2013-11-11 17:07:00,
2013-11-11 12:12:00,61.5,35.0,30.07,West,270,1.6,3.1,37,0.00,,,0.00,pywws,2013-11-11 17:12:00,
2013-11-11 12:17:00,61.7,35.8,30.07,East,90,1.6,3.1,38,0.00,,,0.00,pywws,2013-11-11 17:17:00,
2013-11-11 12:22:00,61.9,35.3,30.07,NNW,338,2.2,5.4,37,0.00,,,0.00,pywws,2013-11-11 17:22:00,
2013-11-11 12:33:00,61.9,36.0,30.07,NW,315,2.2,3.8,38,0.00,,,0.00,pywws,2013-11-11 17:33:00,
2013-11-11 12:38:00,62.6,36.6,30.06,NW,315,0.0,1.6,38,0.00,,,0.00,pywws,2013-11-11 17:38:00,
2013-11-11 12:43:00,62.8,36.8,30.06,West,270,2.2,3.8,38,0.00,,,0.00,pywws,2013-11-11 17:43:00,
2013-11-11 12:48:00,63.0,34.9,30.06,NW,315,0.7,2.2,35,0.00,,,0.00,pywws,2013-11-11 17:48:00,
2013-11-11 12:53:00,63.0,34.9,30.06,SE,135,0.7,2.2,35,0.00,,,0.00,pywws,2013-11-11 17:53:00,
2013-11-11 13:03:00,63.0,35.6,30.06,ENE,68,1.6,2.2,36,0.00,,,0.00,pywws,2013-11-11 18:03:00,
2013-11-11 13:07:00,63.5,35.4,30.06,WNW,292,1.6,3.1,35,0.00,,,0.00,pywws,2013-11-11 18:07:00,
2013-11-11 13:12:00,63.7,34.8,30.06,East,90,0.7,1.6,34,0.00,,,0.00,pywws,2013-11-11 18:12:00,
2013-11-11 13:17:00,63.7,35.5,30.06,SE,135,2.2,3.8,35,0.00,,,0.00,pywws,2013-11-11 18:17:00,
2013-11-11 13:22:00,64.0,34.4,30.05,SSE,158,1.6,2.2,33,0.00,,,0.00,pywws,2013-11-11 18:22:00,
2013-11-11 13:33:00,64.0,35.8,30.05,West,270,0.7,2.2,35,0.00,,,0.00,pywws,2013-11-11 18:33:00,
2013-11-11 13:38:00,64.0,33.6,30.05,SW,225,0.7,2.2,32,0.00,,,0.00,pywws,2013-11-11 18:38:00,
2013-11-11 13:43:00,64.4,35.4,30.05,NE,45,0.7,2.2,34,0.00,,,0.00,pywws,2013-11-11 18:43:00,
2013-11-11 13:48:00,64.8,35.0,30.05,South,180,0.7,3.1,33,0.00,,,0.00,pywws,2013-11-11 18:48:00,
2013-11-11 13:53:00,65.3,35.5,30.05,SSE,158,0.7,2.2,33,0.00,,,0.00,pywws,2013-11-11 18:53:00,
2013-11-11 14:03:00,65.3,34.7,30.05,West,270,1.6,3.1,32,0.00,,,0.00,pywws,2013-11-11 19:03:00,
2013-11-11 14:07:00,65.8,37.4,30.04,West,270,0.0,1.6,35,0.00,,,0.00,pywws,2013-11-11 19:07:00,
2013-11-11 14:12:00,66.7,36.7,30.04,North,0,0.0,1.6,33,0.00,,,0.00,pywws,2013-11-11 19:12:00,
2013-11-11 14:17:00,68.2,37.2,30.04,SW,225,0.0,1.6,32,0.00,,,0.00,pywws,2013-11-11 19:17:00,
2013-11-11 14:22:00,68.4,37.3,30.04,SE,135,0.0,0.7,32,0.00,,,0.00,pywws,2013-11-11 19:22:00,
2013-11-11 14:33:00,67.6,35.9,30.04,NW,315,0.7,3.1,31,0.00,,,0.00,pywws,2013-11-11 19:33:00,
2013-11-11 14:37:00,66.9,36.9,30.04,SE,135,0.7,1.6,33,0.00,,,0.00,pywws,2013-11-11 19:37:00,
2013-11-11 14:42:00,66.7,36.7,30.04,South,180,1.6,2.2,33,0.00,,,0.00,pywws,2013-11-11 19:42:00,
2013-11-11 14:47:00,66.6,36.6,30.04,NE,45,0.0,0.0,33,0.00,,,0.00,pywws,2013-11-11 19:47:00,
2013-11-11 14:52:00,66.2,36.2,30.04,South,180,0.0,0.7,33,0.00,,,0.00,pywws,2013-11-11 19:52:00,
2013-11-11 15:03:00,66.4,37.9,30.04,NW,315,0.0,0.7,35,0.00,,,0.00,pywws,2013-11-11 20:03:00,
2013-11-11 15:07:00,68.2,38.0,30.03,South,180,0.0,1.6,33,0.00,,,0.00,pywws,2013-11-11 20:07:00,
2013-11-11 15:12:00,67.6,37.5,30.03,South,180,0.0,1.6,33,0.00,,,0.00,pywws,2013-11-11 20:12:00,
2013-11-11 15:17:00,68.0,37.8,30.03,NE,45,0.7,2.2,33,0.00,,,0.00,pywws,2013-11-11 20:17:00,
2013-11-11 15:22:00,69.4,38.3,30.03,SW,225,0.0,1.6,32,0.00,,,0.00,pywws,2013-11-11 20:22:00,
2013-11-11 15:33:00,70.5,38.4,30.03,NW,315,0.7,2.2,31,0.00,,,0.00,pywws,2013-11-11 20:33:00,
2013-11-11 15:38:00,69.1,37.2,30.03,South,180,0.0,1.6,31,0.00,,,0.00,pywws,2013-11-11 20:38:00,
2013-11-11 15:43:00,68.0,38.6,30.03,West,270,0.7,1.6,34,0.00,,,0.00,pywws,2013-11-11 20:43:00,
2013-11-11 15:48:00,67.5,38.1,30.03,North,0,0.0,1.6,34,0.00,,,0.00,pywws,2013-11-11 20:48:00,
2013-11-11 15:53:00,66.9,38.4,30.03,NW,315,0.7,2.2,35,0.00,,,0.00,pywws,2013-11-11 20:53:00,
2013-11-11 16:03:00,66.6,38.8,30.03,NE,45,0.0,0.7,36,0.00,,,0.00,pywws,2013-11-11 21:03:00,
2013-11-11 16:07:00,65.5,39.2,30.02,SE,135,0.0,0.0,38,0.00,,,0.00,pywws,2013-11-11 21:07:00,
2013-11-11 16:12:00,64.9,39.4,30.02,NE,45,0.0,0.7,39,0.00,,,0.00,pywws,2013-11-11 21:12:00,
2013-11-11 16:17:00,64.9,38.7,30.02,South,180,0.0,1.6,38,0.00,,,0.00,pywws,2013-11-11 21:17:00,
2013-11-11 16:22:00,64.6,39.7,30.02,SE,135,0.0,0.0,40,0.00,,,0.00,pywws,2013-11-11 21:22:00,
2013-11-11 16:33:00,64.6,38.4,30.02,East,90,0.0,0.7,38,0.00,,,0.00,pywws,2013-11-11 21:33:00,
2013-11-11 16:38:00,63.3,39.2,30.01,North,0,0.0,0.7,41,0.00,,,0.00,pywws,2013-11-11 21:38:00,
2013-11-11 16:43:00,63.0,40.1,30.01,North,0,0.0,0.0,43,0.00,,,0.00,pywws,2013-11-11 21:43:00,
2013-11-11 16:48:00,62.4,40.2,30.01,North,0,0.0,0.7,44,0.00,,,0.00,pywws,2013-11-11 21:48:00,
2013-11-11 16:53:00,61.9,40.9,30.01,North,0,0.0,0.0,46,0.00,,,0.00,pywws,2013-11-11 21:53:00,
2013-11-11 17:03:00,61.3,40.9,30.01,North,0,0.0,0.7,47,0.00,,,0.00,pywws,2013-11-11 22:03:00,
2013-11-11 17:07:00,60.3,41.0,30.01,North,0,0.0,0.7,49,0.00,,,0.00,pywws,2013-11-11 22:07:00,
2013-11-11 17:12:00,59.5,41.9,30.01,North,0,0.0,0.0,52,0.00,,,0.00,pywws,2013-11-11 22:12:00,
2013-11-11 17:17:00,59.0,41.9,30.01,North,0,0.0,0.0,53,0.00,,,0.00,pywws,2013-11-11 22:17:00,
2013-11-11 17:22:00,58.3,41.7,30.01,North,0,0.0,0.0,54,0.00,,,0.00,pywws,2013-11-11 22:22:00,
2013-11-11 17:33:00,57.6,41.5,30.01,North,0,0.0,0.0,55,0.00,,,0.00,pywws,2013-11-11 22:33:00,
2013-11-11 17:38:00,55.9,41.8,30.00,SE,135,0.0,0.0,59,0.00,,,0.00,pywws,2013-11-11 22:38:00,
2013-11-11 17:43:00,55.4,41.7,30.00,SE,135,0.0,0.0,60,0.00,,,0.00,pywws,2013-11-11 22:43:00,
2013-11-11 17:48:00,54.7,41.5,30.00,SE,135,0.0,0.0,61,0.00,,,0.00,pywws,2013-11-11 22:48:00,
2013-11-11 17:53:00,54.0,41.7,30.00,SE,135,0.0,0.0,63,0.00,,,0.00,pywws,2013-11-11 22:53:00,
2013-11-11 18:03:00,53.4,41.6,30.00,SE,135,0.0,0.0,64,0.00,,,0.00,pywws,2013-11-11 23:03:00,
2013-11-11 18:07:00,52.5,41.1,30.00,SE,135,0.0,0.0,65,0.00,,,0.00,pywws,2013-11-11 23:07:00,
2013-11-11 18:12:00,52.0,41.0,30.00,SE,135,0.0,0.0,66,0.00,,,0.00,pywws,2013-11-11 23:12:00,
2013-11-11 18:17:00,51.6,41.4,30.00,SE,135,0.0,0.0,68,0.00,,,0.00,pywws,2013-11-11 23:17:00,
2013-11-11 18:22:00,51.4,41.6,30.00,SE,135,0.0,0.0,69,0.00,,,0.00,pywws,2013-11-11 23:22:00,
2013-11-11 18:33:00,51.1,41.6,30.00,SW,225,0.0,0.0,70,0.00,,,0.00,pywws,2013-11-11 23:33:00,
2013-11-11 18:37:00,50.4,41.0,30.00,SE,135,0.0,0.0,70,0.00,,,0.00,pywws,2013-11-11 23:37:00,
2013-11-11 18:42:00,50.2,41.1,30.00,SE,135,0.0,0.0,71,0.00,,,0.00,pywws,2013-11-11 23:42:00,
2013-11-11 18:47:00,50.0,41.3,30.00,SE,135,0.0,0.0,72,0.00,,,0.00,pywws,2013-11-11 23:47:00,
2013-11-11 18:52:00,49.6,41.0,30.00,SE,135,0.0,0.0,72,0.00,,,0.00,pywws,2013-11-11 23:52:00,
2013-11-11 19:03:00,49.3,41.3,30.00,SE,135,0.0,0.0,74,0.00,,,0.00,pywws,2013-11-12 00:03:00,
2013-11-11 19:07:00,48.7,40.8,30.01,SE,135,0.0,0.0,74,0.00,,,0.00,pywws,2013-11-12 00:07:00,
2013-11-11 19:12:00,48.4,40.8,30.01,SE,135,0.0,0.0,75,0.00,,,0.00,pywws,2013-11-12 00:12:00,
2013-11-11 19:17:00,48.2,40.7,30.01,SE,135,0.0,0.0,75,0.00,,,0.00,pywws,2013-11-12 00:17:00,
2013-11-11 19:22:00,48.2,41.0,30.01,SE,135,0.0,0.0,76,0.00,,,0.00,pywws,2013-11-12 00:22:00,
2013-11-11 19:33:00,47.7,40.8,30.01,SE,135,0.0,0.0,77,0.00,,,0.00,pywws,2013-11-12 00:33:00,
2013-11-11 19:37:00,47.1,40.3,30.01,SE,135,0.0,0.0,77,0.00,,,0.00,pywws,2013-11-12 00:37:00,
2013-11-11 19:42:00,46.9,40.4,30.01,SE,135,0.0,0.0,78,0.00,,,0.00,pywws,2013-11-12 00:42:00,
2013-11-11 19:47:00,46.8,40.3,30.01,SE,135,0.0,0.0,78,0.00,,,0.00,pywws,2013-11-12 00:47:00,
2013-11-11 19:52:00,46.6,40.4,30.01,SW,225,0.0,0.0,79,0.00,,,0.00,pywws,2013-11-12 00:52:00,
2013-11-11 20:03:00,46.4,40.2,30.01,SW,225,0.0,0.0,79,0.00,,,0.00,pywws,2013-11-12 01:03:00,
2013-11-11 20:07:00,46.0,40.2,30.01,SW,225,0.0,0.0,80,0.00,,,0.00,pywws,2013-11-12 01:07:00,
2013-11-11 20:12:00,45.9,40.4,30.01,SE,135,0.0,0.0,81,0.00,,,0.00,pywws,2013-11-12 01:12:00,
2013-11-11 20:17:00,45.9,40.4,30.01,SE,135,0.0,0.0,81,0.00,,,0.00,pywws,2013-11-12 01:17:00,
2013-11-11 20:22:00,45.7,40.2,30.01,SE,135,0.0,0.0,81,0.00,,,0.00,pywws,2013-11-12 01:22:00,
2013-11-11 20:33:00,45.5,40.0,30.01,SE,135,0.0,0.0,81,0.00,,,0.00,pywws,2013-11-12 01:33:00,
2013-11-11 20:38:00,45.3,39.8,30.01,SW,225,0.0,0.0,81,0.00,,,0.00,pywws,2013-11-12 01:38:00,
2013-11-11 20:43:00,45.1,40.0,30.01,SE,135,0.0,0.0,82,0.00,,,0.00,pywws,2013-11-12 01:43:00,
2013-11-11 20:48:00,45.0,40.1,30.01,SE,135,0.0,0.0,83,0.00,,,0.00,pywws,2013-11-12 01:48:00,
2013-11-11 20:53:00,45.0,40.1,30.01,SE,135,0.0,0.0,83,0.00,,,0.00,pywws,2013-11-12 01:53:00,
2013-11-11 21:03:00,45.0,40.1,30.01,SE,135,0.0,0.0,83,0.00,,,0.00,pywws,2013-11-12 02:03:00,
2013-11-11 21:07:00,44.2,39.4,30.01,SE,135,0.0,0.0,83,0.00,,,0.00,pywws,2013-11-12 02:07:00,
2013-11-11 21:12:00,44.1,39.5,30.01,SE,135,0.0,0.0,84,0.00,,,0.00,pywws,2013-11-12 02:12:00,
2013-11-11 21:17:00,44.1,39.5,30.02,SE,135,0.0,0.0,84,0.00,,,0.00,pywws,2013-11-12 02:17:00,
2013-11-11 21:22:00,44.1,39.5,30.02,SE,135,0.0,0.0,84,0.00,,,0.00,pywws,2013-11-12 02:22:00,
2013-11-11 21:33:00,43.9,39.7,30.02,SE,135,0.0,0.0,85,0.00,,,0.00,pywws,2013-11-12 02:33:00,
2013-11-11 21:38:00,43.7,39.5,30.02,SE,135,0.0,0.0,85,0.00,,,0.00,pywws,2013-11-12 02:38:00,
2013-11-11 21:43:00,43.5,39.3,30.02,SE,135,0.0,0.0,85,0.00,,,0.00,pywws,2013-11-12 02:43:00,
2013-11-11 21:48:00,43.3,39.4,30.02,SE,135,0.0,0.0,86,0.00,,,0.00,pywws,2013-11-12 02:48:00,
2013-11-11 21:53:00,43.3,39.4,30.02,SE,135,0.0,0.0,86,0.00,,,0.00,pywws,2013-11-12 02:53:00,
2013-11-11 22:03:00,43.2,39.6,30.02,SE,135,0.0,0.0,87,0.00,,,0.00,pywws,2013-11-12 03:03:00,
2013-11-11 22:07:00,43.2,39.6,30.03,SE,135,0.0,0.0,87,0.00,,,0.00,pywws,2013-11-12 03:07:00,
2013-11-11 22:12:00,43.0,39.4,30.03,SE,135,0.0,0.0,87,0.00,,,0.00,pywws,2013-11-12 03:12:00,
2013-11-11 22:17:00,42.8,39.2,30.03,SE,135,0.0,0.0,87,0.00,,,0.00,pywws,2013-11-12 03:17:00,
2013-11-11 22:22:00,42.8,39.5,30.03,SE,135,0.0,0.0,88,0.00,,,0.00,pywws,2013-11-12 03:22:00,
2013-11-11 22:33:00,42.6,39.3,30.03,SE,135,0.0,0.0,88,0.00,,,0.00,pywws,2013-11-12 03:33:00,
2013-11-11 22:38:00,42.4,39.1,30.03,SE,135,0.0,0.0,88,0.00,,,0.00,pywws,2013-11-12 03:38:00,
2013-11-11 22:43:00,42.3,39.0,30.03,SE,135,0.0,0.0,88,0.00,,,0.00,pywws,2013-11-12 03:43:00,
2013-11-11 22:48:00,42.3,39.0,30.03,SE,135,0.0,0.0,88,0.00,,,0.00,pywws,2013-11-12 03:48:00,
2013-11-11 22:53:00,42.1,38.8,30.03,SE,135,0.0,0.0,88,0.00,,,0.00,pywws,2013-11-12 03:53:00,
2013-11-11 23:03:00,41.9,38.9,30.03,SE,135,0.0,0.0,89,0.00,,,0.00,pywws,2013-11-12 04:03:00,
2013-11-11 23:08:00,41.9,38.9,30.03,West,270,0.0,0.0,89,0.00,,,0.00,pywws,2013-11-12 04:08:00,
2013-11-11 23:13:00,41.7,38.7,30.03,West,270,0.0,0.0,89,0.00,,,0.00,pywws,2013-11-12 04:13:00,
2013-11-11 23:18:00,41.5,38.5,30.04,West,270,0.0,0.0,89,0.00,,,0.00,pywws,2013-11-12 04:18:00,
2013-11-11 23:23:00,41.5,38.8,30.04,West,270,0.0,0.0,90,0.00,,,0.00,pywws,2013-11-12 04:23:00,
2013-11-11 23:33:00,41.4,38.7,30.04,South,180,0.0,0.0,90,0.00,,,0.00,pywws,2013-11-12 04:33:00,
2013-11-11 23:38:00,41.2,38.5,30.04,South,180,0.0,0.0,90,0.00,,,0.00,pywws,2013-11-12 04:38:00,
2013-11-11 23:43:00,41.2,38.8,30.05,South,180,0.0,0.0,91,0.00,,,0.00,pywws,2013-11-12 04:43:00,
2013-11-11 23:48:00,41.2,38.8,30.05,South,180,0.0,0.0,91,0.00,,,0.00,pywws,2013-11-12 04:48:00,
2013-11-11 23:53:00,41.2,38.8,30.05,South,180,0.0,0.0,91,0.00,,,0.00,pywws,2013-11-12 04:53:00,